This is the latest recevied weather packets stored in our database for station/object N8JE-13. If no packets are shown the sender has not sent any weather packets the latest 10 day(s).
| Time | Temp. | Humidity | Pressure | Rain* | Wind** | Luminosity | Snow |
|---|---|---|---|---|---|---|---|
| 1777977052 | 13.33° C | 91% | 1005.9 hPa | 0.51 mm | - | - | - |
| 1777976752 | 13.33° C | 91% | 1005.9 hPa | 1.02 mm | - | - | - |
| 1777976451 | 13.33° C | 90% | 1006 hPa | 1.27 mm | - | - | - |
| 1777976151 | 13.33° C | 90% | 1006.1 hPa | 1.27 mm | - | - | - |
| 1777975852 | 13.33° C | 90% | 1006.3 hPa | 1.27 mm | - | - | - |
| 1777975552 | 13.33° C | 89% | 1006.5 hPa | 1.27 mm | - | - | - |
| 1777975252 | 13.33° C | 89% | 1006.5 hPa | 1.02 mm | - | - | - |
| 1777974952 | 13.89° C | 88% | 1006.5 hPa | 1.02 mm | - | - | - |
| 1777974651 | 13.89° C | 88% | 1006.6 hPa | 1.02 mm | - | - | - |
| 1777974351 | 13.89° C | 87% | 1006.9 hPa | 1.02 mm | - | - | - |
| 1777974051 | 14.44° C | 87% | 1006.9 hPa | 1.02 mm | - | - | - |
| 1777973752 | 14.44° C | 85% | 1006.7 hPa | 1.02 mm | - | - | - |
| 1777973452 | 15° C | 83% | 1006.7 hPa | 0.76 mm | - | - | - |
| 1777973152 | 15° C | 82% | 1006.6 hPa | 0.25 mm | - | - | - |
| 1777972851 | 15.56° C | 80% | 1006.6 hPa | 0 mm | - | - | - |
| 1777972551 | 15.56° C | 79% | 1006.5 hPa | 0 mm | - | - | - |
| 1777972252 | 15.56° C | 79% | 1006.6 hPa | 0 mm | - | - | - |
| 1777971952 | 15.56° C | 78% | 1006.3 hPa | 0 mm | - | - | - |
| 1777971651 | 16.11° C | 76% | 1006.1 hPa | 0 mm | - | - | - |
| 1777971351 | 16.11° C | 75% | 1006.2 hPa | 0 mm | - | - | - |
| 1777971050 | 16.11° C | 74% | 1006.1 hPa | 0 mm | - | - | - |
| 1777970752 | 16.67° C | 73% | 1006 hPa | 0 mm | - | - | - |
| 1777970452 | 16.67° C | 73% | 1006.1 hPa | 0 mm | - | - | - |
| 1777970152 | 16.67° C | 72% | 1006.1 hPa | 0 mm | - | - | - |
| 1777969851 | 16.67° C | 71% | 1006 hPa | 0 mm | - | - | - |
* Rain latest hour (hover to see other rain measurements)
** Current wind speed in m/s (hover to see current wind gust speed)